DW5914 Weather Reports


Display with metric or nautical units.
time (UTC)temp
F
wind
direction
speed
MPH
gust
MPH
rain 1hr
in
rain 24hr
in
rain mn
in
humidity
%
barometer
mb
20260510061506 55 196 3.0 7.0 0.00 0.00 0.00 76 1017.6
20260510060006 55 177 3.0 5.0 0.00 0.00 0.00 77 1017.7
20260510054506 56 169 3.0 5.0 0.00 0.00 0.00 76 1017.7
20260510053005 56 180 4.0 8.0 0.00 0.00 0.00 75 1017.8
20260510051505 56 175 5.0 8.0 0.00 0.00 0.00 75 1017.8
20260510050005 56 170 5.0 8.0 0.00 0.00 0.00 75 1017.9
20260510044508 56 171 3.0 7.0 0.00 0.00 0.00 76 1017.9
20260510043008 57 161 4.0 7.0 0.00 0.00 0.00 75 1017.9
20260510041503 57 135 4.0 7.0 0.00 0.00 0.00 75 1017.8
20260510040002 57 146 3.0 7.0 0.00 0.00 0.00 76 1017.5
20260510034503 58 169 3.0 6.0 0.00 0.00 0.00 75 1017.6
20260510033002 58 176 2.0 6.0 0.00 0.00 0.00 73 1017.4
20260510031502 58 166 2.0 5.0 0.00 0.00 0.00 72 1017.4
20260510024600 60 176 3.0 5.0 0.00 0.00 0.00 70 1017.5
20260510023059 62 193 2.0 4.0 0.00 0.00 0.00 68 1017.5
20260510021557 64 178 1.0 3.0 0.00 0.00 0.00 62 1017.5
20260510020057 64 215 0.0 0.0 0.00 0.00 0.00 61 1017.7
20260510014606 64 180 0.0 0.0 0.00 0.00 0.00 61 1017.9
20260510013052 64 333 1.0 3.0 0.00 0.00 0.00 62 1018.3
20260510011557 63 273 1.0 3.0 0.00 0.00 0.00 64 1018.6
20260510010100 63 334 0.0 2.0 0.00 0.00 0.00 65 1018.7
20260510004554 62 17 1.0 5.0 0.00 0.00 0.00 66 1018.8
20260510003057 61 13 2.0 8.0 0.00 0.00 0.00 67 1018.9
20260510001547 61 11 1.0 5.0 0.00 0.00 0.00 71 1019.2
20260510000051 60 18 4.0 8.0 0.00 0.00 0.00 70 1019.4
20260509234556 61 36 3.0 6.0 0.00 0.00 0.00 69 1019.5
20260509233041 61 342 2.0 8.0 0.00 0.00 0.00 68 1019.7
20260509231540 62 343 3.0 8.0 0.00 0.00 0.00 65 1020.0
20260509230037 62 329 2.0 7.0 0.00 0.00 0.00 67 1020.4
20260509224535 61 5 2.0 7.0 0.00 0.00 0.00 70 1020.7
20260509223034 60 21 2.0 8.0 0.00 0.00 0.00 73 1020.9
20260509221533 61 24 3.0 6.0 0.00 0.00 0.00 73 1021.1
20260509220031 60 341 2.0 7.0 0.00 0.00 0.00 75 1021.2
20260509214537 61 49 3.0 5.0 0.00 0.00 0.00 73 1021.2
20260509213028 62 19 1.0 4.0 0.00 0.00 0.00 71 1021.5
20260509211527 64 307 0.0 6.0 0.00 0.00 0.00 67 1021.7
20260509210024 61 317 0.0 3.0 0.00 0.00 0.00 74 1021.8
20260509204529 61 312 2.0 5.0 0.00 0.00 0.00 75 1021.8
20260509203021 62 15 3.0 6.0 0.00 0.00 0.00 67 1021.7
20260509201517 62 36 2.0 6.0 0.00 0.00 0.00 72 1021.9
20260509200015 61 5 3.0 7.0 0.00 0.00 0.00 73 1022.0
20260509194513 60 15 3.0 5.0 0.00 0.00 0.00 74 1022.2
20260509193011 60 15 3.0 5.0 0.00 0.00 0.00 74 1022.5
20260509191508 60 103 2.0 6.0 0.00 0.00 0.00 74 1022.7
20260509190007 60 28 3.0 5.0 0.00 0.00 0.00 75 1022.7
20260509184504 60 355 3.0 5.0 0.00 0.00 0.00 73 1022.9
20260509183002 59 342 3.0 6.0 0.00 0.00 0.00 74 1022.9
20260509181605 59 350 2.0 6.0 0.00 0.00 0.00 75 1023.1
20260509180059 59 23 3.0 6.0 0.00 0.00 0.00 74 1023.3
20260509174602 58 355 1.0 4.0 0.00 0.00 0.00 74 1023.3
20260509173059 57 328 1.0 4.0 0.00 0.00 0.00 78 1023.4
20260509171552 56 342 1.0 5.0 0.00 0.00 0.00 82 1023.5
20260509170046 55 329 4.0 6.0 0.00 0.00 0.00 82 1023.6
20260509164546 55 342 2.0 6.0 0.00 0.00 0.00 83 1023.7
20260509163045 56 17 2.0 4.0 0.00 0.00 0.00 82 1023.7
20260509161540 55 321 2.0 5.0 0.00 0.00 0.00 82 1024.0
20260509160039 55 313 2.0 4.0 0.00 0.00 0.00 82 1024.2
20260509154537 55 336 1.0 5.0 0.00 0.00 0.00 82 1024.2
20260509153036 55 360 0.0 5.0 0.00 0.00 0.00 82 1024.2
20260509151534 55 57 0.0 1.0 0.00 0.00 0.00 83 1024.4
20260509150031 54 326 1.0 4.0 0.00 0.00 0.00 84 1024.5
20260509144530 54 320 1.0 4.0 0.00 0.00 0.00 84 1024.5
20260509143031 53 34 1.0 3.0 0.00 0.00 0.00 85 1024.6
20260509141529 52 165 0.0 0.0 0.00 0.00 0.00 85 1024.8
20260509140044 52 165 0.0 0.0 0.00 0.00 0.00 86 1024.9
20260509134526 52 165 0.0 0.0 0.00 0.00 0.00 85 1024.8
20260509133026 51 165 0.0 0.0 0.00 0.00 0.00 86 1024.8
20260509131534 51 165 0.0 0.0 0.00 0.00 0.00 86 1024.7
20260509130028 51 165 0.0 0.0 0.00 0.00 0.00 86 1024.7
20260509124524 51 165 0.0 0.0 0.00 0.00 0.00 86 1024.7
20260509123025 51 165 0.0 0.0 0.00 0.00 0.00 86 1024.8
20260509121524 50 163 0.0 0.0 0.00 0.00 0.00 86 1024.8
20260509120020 51 163 0.0 0.0 0.00 0.00 0.00 85 1024.9
20260509114520 51 163 0.0 2.0 0.00 0.00 0.00 84 1024.9
20260509113018 51 162 0.0 0.0 0.00 0.00 0.00 83 1024.9
20260509111518 51 162 0.0 0.0 0.00 0.00 0.00 83 1024.9
20260509110018 51 162 0.0 0.0 0.00 0.00 0.00 83 1024.9
20260509104517 51 162 0.0 2.0 0.00 0.00 0.00 83 1024.9
20260509103015 52 162 1.0 3.0 0.00 0.00 0.00 81 1024.8
20260509101514 52 162 0.0 0.0 0.00 0.00 0.00 81 1024.8
20260509100013 52 162 0.0 0.0 0.00 0.00 0.00 80 1024.7
20260509094513 53 162 0.0 0.0 0.00 0.00 0.00 80 1024.6
20260509093012 53 162 0.0 3.0 0.00 0.00 0.00 80 1024.6
20260509091511 53 162 0.0 2.0 0.00 0.00 0.00 79 1024.7
20260509090013 52 172 0.0 4.0 0.00 0.00 0.00 79 1024.7
20260509084514 52 169 1.0 3.0 0.00 0.00 0.00 79 1024.7
20260509083008 52 165 2.0 4.0 0.00 0.00 0.00 79 1024.8
20260509081508 52 173 3.0 4.0 0.00 0.00 0.00 79 1024.8
20260509080007 52 174 1.0 4.0 0.00 0.00 0.00 79 1024.7
20260509074506 52 175 0.0 2.0 0.00 0.00 0.00 79 1024.7
20260509073005 52 176 1.0 2.0 0.00 0.00 0.00 79 1024.7
20260509071504 52 178 1.0 3.0 0.00 0.00 0.00 79 1024.7
20260509070001 52 178 1.0 3.0 0.00 0.00 0.00 80 1024.6
20260509064502 51 179 0.0 0.0 0.00 0.00 0.00 80 1024.6
20260509063112 52 179 0.0 0.0 0.00 0.00 0.00 79 1024.6